Погода в Шаре

Россия / Республика Дагестан     42°06′51″N   47°08′02″E
темп.,
°C
ветер,
м/с
пор.,
м/с
влажн.,
%
обл.,
%
осадки,
мм/ч
давл.,
гПа
погр.,
м
15 мая, сб
сб1500:00+6юз43764 0.0 102037
03:00+6юз43760 0.0 102038
06:00+9юз32570 0.0 101832
09:00+14ссв22400 0.0 10171323
12:00+16ссв433814 0.0 10162394
15:00+15всв445126 1.1 10161316
18:00+13всв11630 1.7 1017132
21:00+8ююз2271100 1.7 101912
16 мая, вс
вс1600:00+7ююз3272100 0.0 101815
03:00+6ююз32705 0.0 101719
06:00+9ююз33711 0.0 101684
09:00+15ююв12370 0.0 10131342
12:00+17всв23301 0.0 10112401
15:00+16св224210 0.4 10111476
18:00+14ююз11500 0.0 1012108
21:00+8ююз44513 0.0 101550
17 мая, пн
пн1700:00+7юз54387 0.0 101550
03:00+8юз444170 0.0 101340
06:00+10юз445469 0.0 101371
09:00+17юз362914 0.0 10101466
12:00+18юз56241 0.0 10102056
15:00+18юз56240 0.0 10102014
18:00+14ююз3338100 0.0 101144
21:00+10юз4353100 0.0 101448
18 мая, вт
вт1800:00+11ююз3340100 0.0 101333
03:00+10ююз434377 0.0 101231
06:00+11ю445479 0.1 101164
09:00+15св3448100 0.1 10091072
12:00+17ссв063855 1.9 10092374
15:00+13св125871 5.9 1011669
18:00+10св217344 2.7 1014193
21:00+7сз2284100 4.9 101757
19 мая, ср
ср1900:00+8зсз0177100 0.3 101613
03:00+5з11924 0.3 101810
06:00+7зсз118518 0.0 1020186
09:00+11ссв32635 0.0 10191106
12:00+14ссв43567 0.1 10171462
15:00+13св326885 0.3 1018989
18:00+10всв218970 0.3 1020300
21:00+10ююв118496 0.3 102025